| time (UTC) | temp F | wind direction | speed MPH | gust MPH | rain 1hr in | rain 24hr in | rain mn in | humidity % | barometer mb |
| 20260906081557 | 84 | 245 | 5.0 | 8.0 | 0.00 | 0.00 | 0.00 | 46 | 1018.2 |
| 20260906074554 | 84 | 219 | 6.0 | 8.0 | 0.00 | 0.00 | 0.00 | 41 | 1018.2 |
| 20260906073100 | 84 | 219 | 3.0 | 6.0 | 0.00 | 0.00 | 0.00 | 38 | 1018.1 |
| 20260906071601 | 84 | 228 | 3.0 | 5.0 | 0.00 | 0.00 | 0.00 | 40 | 1018.0 |
| 20260906070057 | 84 | 220 | 4.0 | 7.0 | 0.00 | 0.00 | 0.00 | 40 | 1017.8 |
| 20260906064558 | 83 | 236 | 2.0 | 4.0 | 0.00 | 0.00 | 0.00 | 41 | 1017.7 |
| 20260906063057 | 81 | 239 | 2.0 | 4.0 | 0.00 | 0.00 | 0.00 | 46 | 1017.4 |
| 20260906061559 | 79 | 0 | 2.0 | 4.0 | 0.00 | 0.00 | 0.00 | 52 | 1017.3 |
| 20260906060054 | 77 | 237 | 3.0 | 5.0 | 0.00 | 0.00 | 0.00 | 56 | 1017.3 |
| 20260906054606 | 76 | 234 | 2.0 | 4.0 | 0.00 | 0.00 | 0.00 | 57 | 1017.2 |
| 20260906053100 | 73 | 212 | 2.0 | 4.0 | 0.00 | 0.00 | 0.00 | 57 | 1017.3 |
| 20260906051605 | 69 | 0 | 0.0 | 0.0 | 0.00 | 0.00 | 0.00 | 59 | 1017.3 |
| 20260906050058 | 67 | 0 | 0.0 | 1.0 | 0.00 | 0.00 | 0.00 | 59 | 1017.2 |
| 20260906044603 | 67 | 0 | 0.0 | 2.0 | 0.00 | 0.00 | 0.00 | 60 | 1017.0 |
| 20260906043052 | 66 | 0 | 0.0 | 3.0 | 0.00 | 0.00 | 0.00 | 60 | 1016.8 |
| 20260906041557 | 66 | 0 | 0.0 | 0.0 | 0.00 | 0.00 | 0.00 | 59 | 1016.9 |
| 20260906040135 | 67 | 211 | 0.0 | 3.0 | 0.00 | 0.00 | 0.00 | 58 | 1016.5 |
| 20260906034604 | 67 | 0 | 0.0 | 3.0 | 0.00 | 0.00 | 0.00 | 59 | 1016.5 |
| 20260906033108 | 68 | 209 | 0.0 | 3.0 | 0.00 | 0.00 | 0.00 | 58 | 1016.4 |
| 20260906031556 | 69 | 204 | 1.0 | 4.0 | 0.00 | 0.00 | 0.00 | 60 | 1016.5 |
| 20260906030101 | 69 | 0 | 0.0 | 0.0 | 0.00 | 0.00 | 0.00 | 53 | 1016.5 |
| 20260906024610 | 68 | 0 | 0.0 | 3.0 | 0.00 | 0.00 | 0.00 | 53 | 1016.4 |
| 20260906023103 | 67 | 0 | 0.0 | 3.0 | 0.00 | 0.00 | 0.00 | 55 | 1016.2 |
| 20260906021556 | 67 | 0 | 0.0 | 0.0 | 0.00 | 0.00 | 0.00 | 56 | 1016.2 |
| 20260906020053 | 67 | 0 | 0.0 | 0.0 | 0.00 | 0.00 | 0.00 | 58 | 1016.2 |
| 20260906014557 | 67 | 0 | 0.0 | 0.0 | 0.00 | 0.00 | 0.00 | 59 | 1016.2 |
| 20260906013101 | 67 | 0 | 0.0 | 1.0 | 0.00 | 0.00 | 0.00 | 60 | 1016.1 |
| 20260906011556 | 67 | 0 | 0.0 | 0.0 | 0.00 | 0.00 | 0.00 | 65 | 1016.2 |
| 20260906010052 | 67 | 0 | 0.0 | 0.0 | 0.00 | 0.00 | 0.00 | 66 | 1016.1 |
| 20260906004546 | 67 | 0 | 0.0 | 2.0 | 0.00 | 0.00 | 0.00 | 64 | 1016.2 |
| 20260906003101 | 67 | 0 | 0.0 | 0.0 | 0.00 | 0.00 | 0.00 | 65 | 1016.2 |
| 20260906001607 | 67 | 0 | 0.0 | 3.0 | 0.00 | 0.00 | 0.00 | 66 | 1016.3 |
| 20260906000053 | 67 | 0 | 0.0 | 0.0 | 0.00 | 0.00 | 0.00 | 65 | 1016.1 |
| 20260905234601 | 68 | 0 | 0.0 | 0.0 | 0.00 | 0.00 | 0.00 | 63 | 1016.2 |
| 20260905233102 | 68 | 0 | 0.0 | 0.0 | 0.00 | 0.00 | 0.00 | 63 | 1016.3 |
| 20260905231557 | 67 | 0 | 0.0 | 0.0 | 0.00 | 0.00 | 0.00 | 63 | 1016.3 |
| 20260905224615 | 68 | 0 | 0.0 | 0.0 | 0.00 | 0.00 | 0.00 | 66 | 1016.1 |
| 20260905223106 | 69 | 0 | 0.0 | 0.0 | 0.00 | 0.00 | 0.00 | 68 | 1016.3 |
| 20260905221603 | 69 | 0 | 0.0 | 0.0 | 0.00 | 0.00 | 0.00 | 69 | 1016.4 |
| 20260905220048 | 69 | 0 | 0.0 | 0.0 | 0.00 | 0.00 | 0.00 | 69 | 1016.4 |
| 20260905214602 | 69 | 0 | 0.0 | 0.0 | 0.00 | 0.00 | 0.00 | 68 | 1016.5 |
| 20260905213101 | 69 | 0 | 0.0 | 0.0 | 0.00 | 0.00 | 0.00 | 69 | 1016.4 |
| 20260905211604 | 69 | 0 | 0.0 | 0.0 | 0.00 | 0.00 | 0.00 | 70 | 1016.4 |
| 20260905210104 | 69 | 0 | 0.0 | 3.0 | 0.00 | 0.00 | 0.00 | 70 | 1016.7 |
| 20260905204552 | 69 | 0 | 0.0 | 0.0 | 0.00 | 0.00 | 0.00 | 68 | 1016.7 |
| 20260905203059 | 69 | 0 | 0.0 | 0.0 | 0.00 | 0.00 | 0.00 | 67 | 1016.5 |
| 20260905201559 | 71 | 0 | 0.0 | 0.0 | 0.00 | 0.00 | 0.00 | 67 | 1016.7 |
| 20260905200058 | 72 | 203 | 0.0 | 4.0 | 0.00 | 0.00 | 0.00 | 67 | 1016.6 |
| 20260905194553 | 71 | 198 | 1.0 | 4.0 | 0.00 | 0.00 | 0.00 | 68 | 1016.7 |
| 20260905193055 | 73 | 221 | 2.0 | 3.0 | 0.00 | 0.00 | 0.00 | 68 | 1016.7 |
| 20260905191600 | 74 | 223 | 0.0 | 5.0 | 0.00 | 0.00 | 0.00 | 69 | 1016.7 |
| 20260905190057 | 74 | 214 | 3.0 | 7.0 | 0.00 | 0.00 | 0.00 | 68 | 1016.7 |
| 20260905184607 | 74 | 223 | 4.0 | 7.0 | 0.00 | 0.00 | 0.00 | 68 | 1016.8 |
| 20260905183100 | 74 | 202 | 2.0 | 6.0 | 0.00 | 0.00 | 0.00 | 69 | 1016.6 |
| 20260905181559 | 74 | 218 | 2.0 | 4.0 | 0.00 | 0.00 | 0.00 | 69 | 1016.5 |
| 20260905180125 | 74 | 215 | 1.0 | 5.0 | 0.00 | 0.00 | 0.00 | 69 | 1016.4 |
| 20260905174547 | 75 | 218 | 3.0 | 8.0 | 0.00 | 0.00 | 0.00 | 70 | 1016.3 |
| 20260905173130 | 75 | 214 | 4.0 | 7.0 | 0.00 | 0.00 | 0.00 | 69 | 1016.3 |
| 20260905171556 | 76 | 207 | 2.0 | 6.0 | 0.00 | 0.00 | 0.00 | 68 | 1016.1 |
| 20260905170108 | 77 | 208 | 3.0 | 9.0 | 0.00 | 0.00 | 0.00 | 67 | 1016.0 |
| 20260905164556 | 78 | 215 | 4.0 | 6.0 | 0.00 | 0.00 | 0.00 | 66 | 1015.9 |
| 20260905163059 | 80 | 236 | 3.0 | 8.0 | 0.00 | 0.00 | 0.00 | 62 | 1015.6 |
| 20260905161606 | 82 | 225 | 4.0 | 7.0 | 0.00 | 0.00 | 0.00 | 57 | 1015.7 |
| 20260905160051 | 83 | 209 | 1.0 | 8.0 | 0.00 | 0.00 | 0.00 | 54 | 1015.8 |
| 20260905154607 | 84 | 172 | 4.0 | 8.0 | 0.00 | 0.00 | 0.00 | 51 | 1015.7 |
| 20260905153054 | 84 | 190 | 2.0 | 8.0 | 0.00 | 0.00 | 0.00 | 51 | 1015.6 |
| 20260905151605 | 83 | 227 | 5.0 | 11.0 | 0.00 | 0.00 | 0.00 | 52 | 1015.7 |
| 20260905150108 | 84 | 230 | 7.0 | 12.0 | 0.00 | 0.00 | 0.00 | 50 | 1015.7 |
| 20260905144557 | 85 | 236 | 7.0 | 11.0 | 0.00 | 0.00 | 0.00 | 49 | 1015.5 |
| 20260905143055 | 85 | 208 | 10.0 | 14.0 | 0.00 | 0.00 | 0.00 | 50 | 1015.6 |
| 20260905141553 | 86 | 227 | 8.0 | 12.0 | 0.00 | 0.00 | 0.00 | 48 | 1015.7 |
| 20260905134557 | 85 | 223 | 9.0 | 14.0 | 0.00 | 0.00 | 0.00 | 49 | 1015.6 |
| 20260905133101 | 86 | 223 | 11.0 | 14.0 | 0.00 | 0.00 | 0.00 | 49 | 1015.7 |
| 20260905131553 | 86 | 215 | 6.0 | 11.0 | 0.00 | 0.00 | 0.00 | 49 | 1015.7 |
| 20260905130059 | 86 | 227 | 8.0 | 14.0 | 0.00 | 0.00 | 0.00 | 50 | 1015.8 |
| 20260905124555 | 87 | 209 | 9.0 | 13.0 | 0.00 | 0.00 | 0.00 | 48 | 1016.0 |
| 20260905123106 | 87 | 240 | 8.0 | 12.0 | 0.00 | 0.00 | 0.00 | 47 | 1016.2 |
| 20260905121558 | 87 | 208 | 8.0 | 14.0 | 0.00 | 0.00 | 0.00 | 48 | 1016.0 |
| 20260905120058 | 87 | 240 | 6.0 | 12.0 | 0.00 | 0.00 | 0.00 | 47 | 1016.3 |
| 20260905114603 | 86 | 242 | 5.0 | 12.0 | 0.00 | 0.00 | 0.00 | 52 | 1016.4 |
| 20260905113055 | 86 | 219 | 8.0 | 12.0 | 0.00 | 0.00 | 0.00 | 52 | 1016.5 |
| 20260905111555 | 86 | 238 | 7.0 | 12.0 | 0.00 | 0.00 | 0.00 | 45 | 1016.5 |
| 20260905110054 | 86 | 219 | 6.0 | 11.0 | 0.00 | 0.00 | 0.00 | 44 | 1016.6 |
| 20260905104600 | 85 | 254 | 8.0 | 13.0 | 0.00 | 0.00 | 0.00 | 43 | 1016.6 |
| 20260905103058 | 83 | 289 | 3.0 | 8.0 | 0.00 | 0.00 | 0.00 | 45 | 1016.6 |
| 20260905101602 | 85 | 273 | 7.0 | 13.0 | 0.00 | 0.00 | 0.00 | 45 | 1016.7 |
| 20260905100117 | 87 | 26 | 3.0 | 8.0 | 0.00 | 0.00 | 0.00 | 38 | 1016.6 |
| 20260905094558 | 86 | 24 | 3.0 | 9.0 | 0.00 | 0.00 | 0.00 | 38 | 1016.7 |
| 20260905093057 | 86 | 34 | 3.0 | 9.0 | 0.00 | 0.00 | 0.00 | 39 | 1016.9 |
| 20260905091603 | 85 | 19 | 4.0 | 9.0 | 0.00 | 0.00 | 0.00 | 38 | 1017.0 |
| 20260905090052 | 84 | 352 | 6.0 | 14.0 | 0.00 | 0.00 | 0.00 | 42 | 1017.2 |
| 20260905084600 | 83 | 43 | 5.0 | 13.0 | 0.00 | 0.00 | 0.00 | 44 | 1017.2 |
| 20260905083109 | 83 | 40 | 6.0 | 12.0 | 0.00 | 0.00 | 0.00 | 42 | 1017.2 |